GSAT0101 (GALILEO-PFM)

Last updated on Jan. 14, 2021, 6:41 a.m. UTC

1 37846U 11060A   21012.94955650 -.00000072  00000-0  00000-0 0  9995
2 37846  56.7543  35.5338 0003572 313.3883  46.6333  1.70475220 57345
UTC
Height (km)
Latitude
Longitude
Inclination
Orbital Period
UTC large
Height (km)
Speed (km/s)
/
Latitude / Longitude
Inclination (degrees)
Orbital Period (minutes)
Azimuth
Elevation
Range (km)
Doppler Factor
iOS Compass Heading
iOS Angle

Next 30 passes for location: Hong Kong

Rise time Rise Azimuth (degrees) Set time Set Azimuth (degrees) Duration Max altitude (degrees)

No matching passes for this satellites